{"data":{"norad_id":51996,"epoch":"2026-05-25T02:27:24.579648Z","epoch_age_seconds":59475,"freshness":"FRESH","line1":"1 51996U 22025AS  26145.10236782  .00000319  00000+0  38117-4 0  9994","line2":"2 51996  53.2133  36.0895 0001165  81.6080 278.5044 15.08836207232452","mean_motion":15.08836207,"eccentricity":0.0001165,"inclination_deg":53.2133,"raan_deg":36.0895,"arg_perigee_deg":81.608,"mean_anomaly_deg":278.5044,"bstar":3.8117e-5,"rev_number":23245,"period_min":95.437794594228,"perigee_km":538.949048256,"apogee_km":540.56091708796,"semimajor_km":6917.891982672,"source":"CELESTRAK","updated_at":"2026-05-25T13:38:16.999042Z"}}